Time,TemperatureF,DewpointF,PressureIn,WindDirection,WindDirectionDegrees,WindSpeedMPH,WindSpeedGustMPH,Humidity,HourlyPrecipIn,Conditions,Clouds,dailyrainin,SoftwareType,DateUTC
2013-09-02 00:00:00,61.3,56.4,29.90,East,80,2.0,12.0,84,0.00,,,0.33,Wunderground v.1.15,2013-09-02 05:00:00,
2013-09-02 00:04:00,61.1,56.2,29.90,NE,56,2.0,12.0,84,0.00,,,0.00,Wunderground v.1.15,2013-09-02 05:04:00,
2013-09-02 00:06:00,61.1,56.2,29.90,NE,45,2.0,12.0,84,0.00,,,0.00,Wunderground v.1.15,2013-09-02 05:06:00,
2013-09-02 00:07:00,61.0,56.1,29.90,ENE,74,2.0,12.0,84,0.00,,,0.00,Wunderground v.1.15,2013-09-02 05:07:00,
2013-09-02 00:09:00,60.9,56.0,29.90,ENE,60,2.0,2.0,84,0.00,,,0.00,Wunderground v.1.15,2013-09-02 05:09:00,
2013-09-02 00:11:00,60.8,56.3,29.90,NE,56,2.0,2.0,85,0.00,,,0.00,Wunderground v.1.15,2013-09-02 05:11:00,
2013-09-02 00:13:00,60.7,56.2,29.90,ENE,72,1.0,2.0,85,0.00,,,0.00,Wunderground v.1.15,2013-09-02 05:13:00,
2013-09-02 00:18:00,60.4,55.9,29.90,NE,49,2.0,2.0,85,0.00,,,0.00,Wunderground v.1.15,2013-09-02 05:18:00,
2013-09-02 00:20:00,60.3,55.8,29.90,NE,56,2.0,2.0,85,0.00,,,0.00,Wunderground v.1.15,2013-09-02 05:20:00,
2013-09-02 00:26:00,59.9,55.7,29.90,ENE,65,1.0,2.0,86,0.00,,,0.00,Wunderground v.1.15,2013-09-02 05:26:00,
2013-09-02 00:28:00,59.8,55.6,29.90,NE,44,1.0,2.0,86,0.00,,,0.00,Wunderground v.1.15,2013-09-02 05:28:00,
2013-09-02 00:33:00,59.3,55.4,29.91,NE,50,1.0,1.0,87,0.00,,,0.00,Wunderground v.1.15,2013-09-02 05:33:00,
2013-09-02 00:35:00,59.1,55.2,29.91,NE,49,1.0,1.0,87,0.00,,,0.00,Wunderground v.1.15,2013-09-02 05:35:00,
2013-09-02 00:38:00,58.8,54.9,29.91,East,97,0.0,1.0,87,0.00,,,0.00,Wunderground v.1.15,2013-09-02 05:38:00,
2013-09-02 00:42:00,58.5,55.0,29.91,East,95,0.0,1.0,88,0.00,,,0.00,Wunderground v.1.15,2013-09-02 05:42:00,
2013-09-02 00:44:00,58.3,54.8,29.91,East,95,0.0,1.0,88,0.00,,,0.00,Wunderground v.1.15,2013-09-02 05:44:00,
2013-09-02 00:46:00,58.2,54.7,29.90,NE,56,0.0,1.0,88,0.00,,,0.00,Wunderground v.1.15,2013-09-02 05:46:00,
2013-09-02 00:48:00,58.0,54.8,29.91,NE,48,0.0,1.0,89,0.00,,,0.00,Wunderground v.1.15,2013-09-02 05:48:00,
2013-09-02 00:49:00,57.8,54.6,29.90,ENE,78,0.0,1.0,89,0.00,,,0.00,Wunderground v.1.15,2013-09-02 05:49:00,
2013-09-02 00:53:00,57.5,54.6,29.91,ENE,73,1.0,1.0,90,0.00,,,0.00,Wunderground v.1.15,2013-09-02 05:53:00,
2013-09-02 00:57:00,57.3,54.4,29.91,NNE,29,1.0,1.0,90,0.00,,,0.00,Wunderground v.1.15,2013-09-02 05:57:00,
2013-09-02 01:00:00,57.2,54.3,29.91,NE,56,1.0,1.0,90,0.00,,,0.00,Wunderground v.1.15,2013-09-02 06:00:00,
2013-09-02 01:02:00,57.1,54.5,29.91,ENE,75,1.0,6.0,91,0.00,,,0.00,Wunderground v.1.15,2013-09-02 06:02:00,
2013-09-02 01:04:00,57.1,54.5,29.91,NE,46,1.0,6.0,91,0.00,,,0.00,Wunderground v.1.15,2013-09-02 06:04:00,
2013-09-02 01:06:00,57.1,54.5,29.91,ENE,68,1.0,6.0,91,0.00,,,0.00,Wunderground v.1.15,2013-09-02 06:06:00,
2013-09-02 01:10:00,57.0,54.4,29.91,NE,49,1.0,6.0,91,0.00,,,0.00,Wunderground v.1.15,2013-09-02 06:10:00,
2013-09-02 01:11:00,57.0,54.4,29.91,NE,56,1.0,6.0,91,0.00,,,0.00,Wunderground v.1.15,2013-09-02 06:11:00,
2013-09-02 01:13:00,56.9,54.3,29.91,ENE,72,1.0,6.0,91,0.00,,,0.00,Wunderground v.1.15,2013-09-02 06:13:00,
2013-09-02 01:15:00,56.9,54.3,29.91,NE,49,1.0,6.0,91,0.00,,,0.00,Wunderground v.1.15,2013-09-02 06:15:00,
2013-09-02 01:17:00,56.8,54.2,29.91,NE,50,1.0,6.0,91,0.00,,,0.00,Wunderground v.1.15,2013-09-02 06:17:00,
2013-09-02 01:20:00,56.7,54.4,29.91,ENE,62,1.0,6.0,92,0.00,,,0.00,Wunderground v.1.15,2013-09-02 06:20:00,
2013-09-02 01:22:00,56.6,54.3,29.91,ENE,68,1.0,6.0,92,0.00,,,0.00,Wunderground v.1.15,2013-09-02 06:22:00,
2013-09-02 01:24:00,56.4,54.1,29.91,ENE,65,1.0,6.0,92,0.00,,,0.00,Wunderground v.1.15,2013-09-02 06:24:00,
2013-09-02 01:26:00,56.3,54.0,29.91,ENE,70,1.0,6.0,92,0.00,,,0.00,Wunderground v.1.15,2013-09-02 06:26:00,
2013-09-02 01:28:00,56.2,53.9,29.91,East,80,1.0,6.0,92,0.00,,,0.00,Wunderground v.1.15,2013-09-02 06:28:00,
2013-09-02 01:32:00,56.0,54.0,29.91,NE,49,1.0,6.0,93,0.00,,,0.00,Wunderground v.1.15,2013-09-02 06:32:00,
2013-09-02 01:35:00,55.9,53.9,29.91,NE,45,1.0,6.0,93,0.00,,,0.00,Wunderground v.1.15,2013-09-02 06:35:00,
2013-09-02 01:39:00,55.8,53.8,29.92,ENE,58,1.0,1.0,93,0.00,,,0.00,Wunderground v.1.15,2013-09-02 06:39:00,
2013-09-02 01:42:00,55.7,53.7,29.92,North,3,1.0,6.0,93,0.00,,,0.00,Wunderground v.1.15,2013-09-02 06:42:00,
2013-09-02 01:46:00,55.5,53.5,29.92,ENE,72,0.0,6.0,93,0.00,,,0.00,Wunderground v.1.15,2013-09-02 06:46:00,
2013-09-02 01:48:00,55.4,53.4,29.92,ENE,66,0.0,6.0,93,0.00,,,0.00,Wunderground v.1.15,2013-09-02 06:48:00,
2013-09-02 01:50:00,55.2,53.2,29.92,ENE,67,0.0,6.0,93,0.00,,,0.00,Wunderground v.1.15,2013-09-02 06:50:00,
2013-09-02 01:53:00,54.9,52.9,29.92,ENE,65,0.0,6.0,93,0.00,,,0.00,Wunderground v.1.15,2013-09-02 06:53:00,
2013-09-02 01:57:00,54.6,52.6,29.92,NNW,330,0.0,6.0,93,0.00,,,0.00,Wunderground v.1.15,2013-09-02 06:57:00,
2013-09-02 01:59:00,54.5,52.5,29.92,North,7,0.0,6.0,93,0.00,,,0.00,Wunderground v.1.15,2013-09-02 06:59:00,
2013-09-02 02:01:00,54.4,52.7,29.92,ENE,65,0.0,6.0,94,0.00,,,0.00,Wunderground v.1.15,2013-09-02 07:01:00,
2013-09-02 02:08:00,54.4,53.0,29.91,ENE,63,1.0,6.0,95,0.00,,,0.00,Wunderground v.1.15,2013-09-02 07:08:00,
2013-09-02 02:10:00,54.4,53.0,29.91,ENE,63,1.0,6.0,95,0.00,,,0.00,Wunderground v.1.15,2013-09-02 07:10:00,
2013-09-02 02:12:00,54.4,53.0,29.91,NE,48,1.0,6.0,95,0.00,,,0.00,Wunderground v.1.15,2013-09-02 07:12:00,
2013-09-02 02:14:00,54.4,53.0,29.91,NNE,23,1.0,6.0,95,0.00,,,0.00,Wunderground v.1.15,2013-09-02 07:14:00,
2013-09-02 02:15:00,54.4,53.0,29.91,NE,56,1.0,6.0,95,0.00,,,0.00,Wunderground v.1.15,2013-09-02 07:15:00,
2013-09-02 02:19:00,54.5,53.1,29.92,ENE,70,1.0,6.0,95,0.00,,,0.00,Wunderground v.1.15,2013-09-02 07:19:00,
2013-09-02 02:21:00,54.5,53.1,29.92,ENE,77,1.0,6.0,95,0.00,,,0.00,Wunderground v.1.15,2013-09-02 07:21:00,
2013-09-02 02:24:00,54.5,53.1,29.92,East,93,1.0,6.0,95,0.00,,,0.00,Wunderground v.1.15,2013-09-02 07:24:00,
2013-09-02 02:30:00,54.1,52.4,29.92,NNW,342,1.0,1.0,94,0.00,,,0.00,Wunderground v.1.15,2013-09-02 07:30:00,
2013-09-02 02:32:00,53.9,52.2,29.92,NNW,346,0.0,6.0,94,0.00,,,0.00,Wunderground v.1.15,2013-09-02 07:32:00,
2013-09-02 02:36:00,53.6,51.9,29.92,NE,55,0.0,6.0,94,0.00,,,0.00,Wunderground v.1.15,2013-09-02 07:36:00,
2013-09-02 02:37:00,53.5,52.1,29.92,ENE,58,0.0,6.0,95,0.00,,,0.00,Wunderground v.1.15,2013-09-02 07:37:00,
2013-09-02 02:41:00,53.3,51.9,29.92,NNE,25,0.0,6.0,95,0.00,,,0.00,Wunderground v.1.15,2013-09-02 07:41:00,
2013-09-02 02:43:00,53.3,51.9,29.92,NNE,33,0.0,6.0,95,0.00,,,0.00,Wunderground v.1.15,2013-09-02 07:43:00,
2013-09-02 02:46:00,53.3,51.9,29.92,ENE,61,0.0,6.0,95,0.00,,,0.00,Wunderground v.1.15,2013-09-02 07:46:00,
2013-09-02 02:48:00,53.2,52.1,29.91,ENE,68,0.0,6.0,96,0.00,,,0.00,Wunderground v.1.15,2013-09-02 07:48:00,
2013-09-02 02:52:00,53.2,52.1,29.91,ENE,68,0.0,6.0,96,0.00,,,0.00,Wunderground v.1.15,2013-09-02 07:52:00,
2013-09-02 02:57:00,53.0,51.9,29.92,ENE,65,0.0,6.0,96,0.00,,,0.00,Wunderground v.1.15,2013-09-02 07:57:00,
2013-09-02 02:59:00,53.0,51.9,29.92,ENE,65,0.0,6.0,96,0.00,,,0.00,Wunderground v.1.15,2013-09-02 07:59:00,
2013-09-02 03:01:00,52.9,51.8,29.92,ENE,65,0.0,6.0,96,0.00,,,0.00,Wunderground v.1.15,2013-09-02 08:01:00,
2013-09-02 03:03:00,52.8,51.7,29.92,ENE,65,0.0,6.0,96,0.00,,,0.00,Wunderground v.1.15,2013-09-02 08:03:00,
2013-09-02 03:05:00,52.7,51.6,29.92,ENE,65,0.0,6.0,96,0.00,,,0.00,Wunderground v.1.15,2013-09-02 08:05:00,
2013-09-02 03:08:00,52.5,51.4,29.92,ENE,65,0.0,6.0,96,0.00,,,0.00,Wunderground v.1.15,2013-09-02 08:08:00,
2013-09-02 03:10:00,52.5,51.4,29.92,North,11,0.0,6.0,96,0.00,,,0.00,Wunderground v.1.15,2013-09-02 08:10:00,
2013-09-02 03:14:00,52.4,51.3,29.92,NNE,27,0.0,6.0,96,0.00,,,0.00,Wunderground v.1.15,2013-09-02 08:14:00,
2013-09-02 03:18:00,52.4,51.3,29.92,NNE,27,0.0,6.0,96,0.00,,,0.00,Wunderground v.1.15,2013-09-02 08:18:00,
2013-09-02 03:19:00,52.2,51.1,29.92,NNE,27,0.0,6.0,96,0.00,,,0.00,Wunderground v.1.15,2013-09-02 08:19:00,
2013-09-02 03:21:00,52.2,51.1,29.92,NNE,27,0.0,6.0,96,0.00,,,0.00,Wunderground v.1.15,2013-09-02 08:21:00,
2013-09-02 03:23:00,52.1,51.0,29.92,NNE,27,0.0,6.0,96,0.00,,,0.00,Wunderground v.1.15,2013-09-02 08:23:00,
2013-09-02 03:25:00,52.0,50.9,29.92,NNE,27,0.0,6.0,96,0.00,,,0.00,Wunderground v.1.15,2013-09-02 08:25:00,
2013-09-02 03:30:00,52.0,50.9,29.92,NNE,27,0.0,6.0,96,0.00,,,0.00,Wunderground v.1.15,2013-09-02 08:30:00,
2013-09-02 03:32:00,52.0,51.2,29.92,NNE,28,0.0,6.0,97,0.00,,,0.00,Wunderground v.1.15,2013-09-02 08:32:00,
2013-09-02 03:38:00,52.1,51.3,29.92,NE,45,0.0,6.0,97,0.00,,,0.00,Wunderground v.1.15,2013-09-02 08:38:00,
2013-09-02 03:41:00,52.1,51.3,29.92,East,82,0.0,6.0,97,0.00,,,0.00,Wunderground v.1.15,2013-09-02 08:41:00,
2013-09-02 03:45:00,52.2,51.4,29.92,East,82,0.0,6.0,97,0.00,,,0.00,Wunderground v.1.15,2013-09-02 08:45:00,
2013-09-02 03:47:00,52.2,51.4,29.92,East,82,0.0,6.0,97,0.00,,,0.00,Wunderground v.1.15,2013-09-02 08:47:00,
2013-09-02 03:50:00,52.2,51.4,29.92,ENE,72,0.0,6.0,97,0.00,,,0.00,Wunderground v.1.15,2013-09-02 08:50:00,
2013-09-02 03:52:00,52.3,51.5,29.92,ENE,72,0.0,6.0,97,0.00,,,0.00,Wunderground v.1.15,2013-09-02 08:52:00,
2013-09-02 03:54:00,52.3,51.5,29.92,ENE,72,0.0,6.0,97,0.00,,,0.00,Wunderground v.1.15,2013-09-02 08:54:00,
2013-09-02 03:58:00,52.2,51.4,29.93,ENE,71,0.0,6.0,97,0.00,,,0.00,Wunderground v.1.15,2013-09-02 08:58:00,
2013-09-02 04:01:00,52.0,51.2,29.93,ENE,71,0.0,6.0,97,0.00,,,0.00,Wunderground v.1.15,2013-09-02 09:01:00,
2013-09-02 04:05:00,51.7,50.9,29.93,ENE,72,0.0,6.0,97,0.00,,,0.00,Wunderground v.1.15,2013-09-02 09:05:00,
2013-09-02 04:07:00,51.6,50.8,29.93,ENE,72,0.0,6.0,97,0.00,,,0.00,Wunderground v.1.15,2013-09-02 09:07:00,
2013-09-02 04:09:00,51.5,50.7,29.93,NE,53,0.0,6.0,97,0.00,,,0.00,Wunderground v.1.15,2013-09-02 09:09:00,
2013-09-02 04:14:00,51.4,50.6,29.93,NE,45,0.0,6.0,97,0.00,,,0.00,Wunderground v.1.15,2013-09-02 09:14:00,
2013-09-02 04:16:00,51.3,50.5,29.93,NE,46,0.0,6.0,97,0.00,,,0.00,Wunderground v.1.15,2013-09-02 09:16:00,
2013-09-02 04:20:00,51.2,50.4,29.93,NNE,12,0.0,6.0,97,0.00,,,0.00,Wunderground v.1.15,2013-09-02 09:20:00,
2013-09-02 04:22:00,51.1,50.3,29.93,NE,55,0.0,6.0,97,0.00,,,0.00,Wunderground v.1.15,2013-09-02 09:22:00,
2013-09-02 04:23:00,51.0,50.2,29.93,NE,55,0.0,6.0,97,0.00,,,0.00,Wunderground v.1.15,2013-09-02 09:23:00,
2013-09-02 04:25:00,51.0,50.2,29.93,NE,56,0.0,6.0,97,0.00,,,0.00,Wunderground v.1.15,2013-09-02 09:25:00,
2013-09-02 04:27:00,51.0,50.2,29.93,NE,53,0.0,6.0,97,0.00,,,0.00,Wunderground v.1.15,2013-09-02 09:27:00,
2013-09-02 04:32:00,50.9,50.1,29.93,NE,49,0.0,6.0,97,0.00,,,0.00,Wunderground v.1.15,2013-09-02 09:32:00,
2013-09-02 04:34:00,50.9,50.1,29.93,NE,49,0.0,6.0,97,0.00,,,0.00,Wunderground v.1.15,2013-09-02 09:34:00,
2013-09-02 04:36:00,50.8,50.0,29.93,NE,51,0.0,6.0,97,0.00,,,0.00,Wunderground v.1.15,2013-09-02 09:36:00,
2013-09-02 04:38:00,50.8,50.0,29.93,NE,53,0.0,6.0,97,0.00,,,0.00,Wunderground v.1.15,2013-09-02 09:38:00,
2013-09-02 04:40:00,50.7,49.9,29.93,NNW,343,0.0,6.0,97,0.00,,,0.00,Wunderground v.1.15,2013-09-02 09:40:00,
2013-09-02 04:42:00,50.7,49.9,29.94,NNE,23,0.0,6.0,97,0.00,,,0.00,Wunderground v.1.15,2013-09-02 09:42:00,
2013-09-02 04:45:00,50.6,49.8,29.94,North,11,0.0,6.0,97,0.00,,,0.00,Wunderground v.1.15,2013-09-02 09:45:00,
2013-09-02 04:49:00,50.5,49.7,29.94,ESE,106,0.0,6.0,97,0.00,,,0.00,Wunderground v.1.15,2013-09-02 09:49:00,
2013-09-02 04:51:00,50.4,49.6,29.94,ESE,107,0.0,6.0,97,0.00,,,0.00,Wunderground v.1.15,2013-09-02 09:51:00,
2013-09-02 04:56:00,50.4,49.6,29.94,ESE,106,0.0,6.0,97,0.00,,,0.00,Wunderground v.1.15,2013-09-02 09:56:00,
2013-09-02 05:02:00,50.4,49.9,29.94,ENE,65,0.0,6.0,98,0.00,,,0.00,Wunderground v.1.15,2013-09-02 10:02:00,
2013-09-02 05:04:00,50.4,49.9,29.94,ENE,65,0.0,6.0,98,0.00,,,0.00,Wunderground v.1.15,2013-09-02 10:04:00,
2013-09-02 05:09:00,50.3,49.8,29.94,ENE,66,0.0,6.0,98,0.00,,,0.00,Wunderground v.1.15,2013-09-02 10:09:00,
2013-09-02 05:11:00,50.3,49.8,29.94,ENE,66,0.0,6.0,98,0.00,,,0.00,Wunderground v.1.15,2013-09-02 10:11:00,
2013-09-02 05:13:00,50.3,49.8,29.94,NE,52,0.0,6.0,98,0.00,,,0.00,Wunderground v.1.15,2013-09-02 10:13:00,
2013-09-02 05:16:00,50.3,49.8,29.94,ENE,63,0.0,6.0,98,0.00,,,0.00,Wunderground v.1.15,2013-09-02 10:16:00,
2013-09-02 05:22:00,50.3,49.8,29.94,East,83,0.0,6.0,98,0.00,,,0.00,Wunderground v.1.15,2013-09-02 10:22:00,
2013-09-02 05:24:00,50.3,49.8,29.94,NE,41,0.0,6.0,98,0.00,,,0.00,Wunderground v.1.15,2013-09-02 10:24:00,
2013-09-02 05:26:00,50.3,49.8,29.94,ENE,70,0.0,6.0,98,0.00,,,0.00,Wunderground v.1.15,2013-09-02 10:26:00,
2013-09-02 05:27:00,50.3,49.8,29.94,NNE,32,0.0,6.0,98,0.00,,,0.00,Wunderground v.1.15,2013-09-02 10:27:00,
2013-09-02 05:29:00,50.2,49.7,29.95,NNE,30,0.0,6.0,98,0.00,,,0.00,Wunderground v.1.15,2013-09-02 10:29:00,
2013-09-02 05:31:00,50.1,49.6,29.95,NNE,30,0.0,6.0,98,0.00,,,0.00,Wunderground v.1.15,2013-09-02 10:31:00,
2013-09-02 05:33:00,50.0,49.5,29.95,NNE,30,0.0,6.0,98,0.00,,,0.00,Wunderground v.1.15,2013-09-02 10:33:00,
2013-09-02 05:36:00,49.9,49.4,29.95,NNE,30,0.0,6.0,98,0.00,,,0.00,Wunderground v.1.15,2013-09-02 10:36:00,
2013-09-02 05:40:00,49.7,48.9,29.95,NNE,30,0.0,6.0,97,0.00,,,0.00,Wunderground v.1.15,2013-09-02 10:40:00,
2013-09-02 05:42:00,49.6,48.8,29.95,NNE,30,0.0,6.0,97,0.00,,,0.00,Wunderground v.1.15,2013-09-02 10:42:00,
2013-09-02 05:46:00,49.4,48.6,29.95,NNE,28,0.0,6.0,97,0.00,,,0.00,Wunderground v.1.15,2013-09-02 10:46:00,
2013-09-02 05:48:00,49.3,48.8,29.95,NNE,28,0.0,6.0,98,0.00,,,0.00,Wunderground v.1.15,2013-09-02 10:48:00,
2013-09-02 05:49:00,49.3,48.8,29.95,NNE,28,0.0,6.0,98,0.00,,,0.00,Wunderground v.1.15,2013-09-02 10:49:00,
2013-09-02 05:53:00,49.3,48.8,29.95,NNE,31,0.0,6.0,98,0.00,,,0.00,Wunderground v.1.15,2013-09-02 10:53:00,
2013-09-02 05:55:00,49.2,48.7,29.95,NNE,31,0.0,6.0,98,0.00,,,0.00,Wunderground v.1.15,2013-09-02 10:55:00,
2013-09-02 05:58:00,49.2,48.7,29.95,NE,39,0.0,6.0,98,0.00,,,0.00,Wunderground v.1.15,2013-09-02 10:58:00,
2013-09-02 06:00:00,49.2,48.7,29.95,NE,36,0.0,6.0,98,0.00,,,0.00,Wunderground v.1.15,2013-09-02 11:00:00,
2013-09-02 06:04:00,49.2,48.7,29.95,NE,44,0.0,6.0,98,0.00,,,0.00,Wunderground v.1.15,2013-09-02 11:04:00,
2013-09-02 06:06:00,49.2,48.7,29.95,NE,46,0.0,6.0,98,0.00,,,0.00,Wunderground v.1.15,2013-09-02 11:06:00,
2013-09-02 06:09:00,49.2,48.7,29.95,NE,44,0.0,6.0,98,0.00,,,0.00,Wunderground v.1.15,2013-09-02 11:09:00,
2013-09-02 06:13:00,49.1,48.6,29.95,NE,44,0.0,6.0,98,0.00,,,0.00,Wunderground v.1.15,2013-09-02 11:13:00,
2013-09-02 06:15:00,49.0,48.5,29.95,NE,44,0.0,6.0,98,0.00,,,0.00,Wunderground v.1.15,2013-09-02 11:15:00,
2013-09-02 06:22:00,48.8,48.3,29.95,NE,44,0.0,6.0,98,0.00,,,0.00,Wunderground v.1.15,2013-09-02 11:22:00,
2013-09-02 06:24:00,48.7,48.2,29.96,ENE,58,0.0,6.0,98,0.00,,,0.00,Wunderground v.1.15,2013-09-02 11:24:00,
2013-09-02 06:28:00,48.8,48.3,29.96,ENE,63,0.0,6.0,98,0.00,,,0.00,Wunderground v.1.15,2013-09-02 11:28:00,
2013-09-02 06:32:00,48.9,48.4,29.96,ENE,68,0.0,6.0,98,0.00,,,0.00,Wunderground v.1.15,2013-09-02 11:32:00,
2013-09-02 06:34:00,48.9,48.4,29.96,ENE,68,0.0,6.0,98,0.00,,,0.00,Wunderground v.1.15,2013-09-02 11:34:00,
2013-09-02 06:35:00,48.9,48.4,29.96,NE,43,0.0,6.0,98,0.00,,,0.00,Wunderground v.1.15,2013-09-02 11:35:00,
2013-09-02 06:37:00,48.9,48.4,29.96,NE,43,0.0,6.0,98,0.00,,,0.00,Wunderground v.1.15,2013-09-02 11:37:00,
2013-09-02 06:40:00,48.9,48.4,29.96,East,79,0.0,6.0,98,0.00,,,0.00,Wunderground v.1.15,2013-09-02 11:40:00,
2013-09-02 06:42:00,48.9,48.4,29.96,ENE,77,0.0,6.0,98,0.00,,,0.00,Wunderground v.1.15,2013-09-02 11:42:00,
2013-09-02 06:44:00,48.8,48.3,29.96,East,79,0.0,6.0,98,0.00,,,0.00,Wunderground v.1.15,2013-09-02 11:44:00,
2013-09-02 06:46:00,48.8,48.3,29.96,East,79,0.0,6.0,98,0.00,,,0.00,Wunderground v.1.15,2013-09-02 11:46:00,
2013-09-02 06:48:00,48.8,48.3,29.96,ENE,78,0.0,6.0,98,0.00,,,0.00,Wunderground v.1.15,2013-09-02 11:48:00,
2013-09-02 06:50:00,48.7,48.2,29.96,East,79,0.0,6.0,98,0.00,,,0.00,Wunderground v.1.15,2013-09-02 11:50:00,
2013-09-02 06:52:00,48.7,48.2,29.96,ENE,78,0.0,6.0,98,0.00,,,0.00,Wunderground v.1.15,2013-09-02 11:52:00,
2013-09-02 06:54:00,48.6,48.1,29.96,ENE,77,0.0,6.0,98,0.00,,,0.00,Wunderground v.1.15,2013-09-02 11:54:00,
2013-09-02 06:56:00,48.6,48.1,29.96,NE,50,0.0,6.0,98,0.00,,,0.00,Wunderground v.1.15,2013-09-02 11:56:00,
2013-09-02 06:57:00,48.5,48.0,29.96,NE,49,0.0,6.0,98,0.00,,,0.00,Wunderground v.1.15,2013-09-02 11:57:00,
2013-09-02 06:59:00,48.5,48.0,29.97,NE,50,0.0,6.0,98,0.00,,,0.00,Wunderground v.1.15,2013-09-02 11:59:00,
2013-09-02 07:02:00,48.4,47.9,29.97,NE,49,0.0,6.0,98,0.00,,,0.00,Wunderground v.1.15,2013-09-02 12:02:00,
2013-09-02 07:04:00,48.4,47.9,29.97,NE,50,0.0,6.0,98,0.00,,,0.00,Wunderground v.1.15,2013-09-02 12:04:00,
2013-09-02 07:08:00,48.4,47.9,29.97,NW,305,0.0,6.0,98,0.00,,,0.00,Wunderground v.1.15,2013-09-02 12:08:00,
2013-09-02 07:10:00,48.4,47.9,29.97,NW,314,0.0,6.0,98,0.00,,,0.00,Wunderground v.1.15,2013-09-02 12:10:00,
2013-09-02 07:12:00,48.5,48.0,29.97,North,355,0.0,6.0,98,0.00,,,0.00,Wunderground v.1.15,2013-09-02 12:12:00,
2013-09-02 07:17:00,48.7,48.4,29.97,NE,43,0.0,6.0,99,0.00,,,0.00,Wunderground v.1.15,2013-09-02 12:17:00,
2013-09-02 07:19:00,48.8,48.5,29.98,NE,43,0.0,6.0,99,0.00,,,0.00,Wunderground v.1.15,2013-09-02 12:19:00,
2013-09-02 07:24:00,49.1,48.8,29.98,NE,56,0.0,6.0,99,0.00,,,0.00,Wunderground v.1.15,2013-09-02 12:24:00,
2013-09-02 07:26:00,49.2,48.9,29.98,ENE,61,0.0,6.0,99,0.00,,,0.00,Wunderground v.1.15,2013-09-02 12:26:00,
2013-09-02 07:30:00,49.5,49.2,29.98,ENE,65,0.0,6.0,99,0.00,,,0.00,Wunderground v.1.15,2013-09-02 12:30:00,
2013-09-02 07:32:00,49.7,49.4,29.98,ENE,63,0.0,6.0,99,0.00,,,0.00,Wunderground v.1.15,2013-09-02 12:32:00,
2013-09-02 07:38:00,50.2,49.9,29.98,ENE,71,0.0,6.0,99,0.00,,,0.00,Wunderground v.1.15,2013-09-02 12:38:00,
2013-09-02 07:41:00,50.6,50.3,29.98,ENE,63,0.0,6.0,99,0.00,,,0.00,Wunderground v.1.15,2013-09-02 12:41:00,
2013-09-02 07:48:00,51.1,50.8,29.98,ENE,63,1.0,6.0,99,0.00,,,0.00,Wunderground v.1.15,2013-09-02 12:48:00,
2013-09-02 07:50:00,51.3,51.0,29.98,ENE,61,1.0,6.0,99,0.00,,,0.00,Wunderground v.1.15,2013-09-02 12:50:00,
2013-09-02 07:54:00,51.7,51.4,29.98,NE,42,1.0,6.0,99,0.00,,,0.00,Wunderground v.1.15,2013-09-02 12:54:00,
2013-09-02 07:56:00,51.8,51.5,29.98,NE,45,1.0,6.0,99,0.00,,,0.00,Wunderground v.1.15,2013-09-02 12:56:00,
2013-09-02 07:58:00,52.0,52.0,29.98,NE,41,1.0,6.0,100,0.00,,,0.00,Wunderground v.1.15,2013-09-02 12:58:00,
2013-09-02 08:00:00,52.1,52.1,29.98,NE,55,1.0,6.0,100,0.00,,,0.00,Wunderground v.1.15,2013-09-02 13:00:00,
2013-09-02 08:01:00,52.3,52.3,29.98,ENE,65,1.0,6.0,100,0.00,,,0.00,Wunderground v.1.15,2013-09-02 13:01:00,
2013-09-02 08:08:00,52.8,52.8,29.98,NE,55,1.0,6.0,100,0.00,,,0.00,Wunderground v.1.15,2013-09-02 13:08:00,
2013-09-02 08:12:00,53.0,53.0,29.98,ENE,63,1.0,6.0,100,0.00,,,0.00,Wunderground v.1.15,2013-09-02 13:12:00,
2013-09-02 08:14:00,53.1,53.1,29.98,NE,41,1.0,6.0,100,0.00,,,0.00,Wunderground v.1.15,2013-09-02 13:14:00,
2013-09-02 08:16:00,53.2,53.2,29.98,NE,50,1.0,6.0,100,0.00,,,0.00,Wunderground v.1.15,2013-09-02 13:16:00,
2013-09-02 08:18:00,53.4,53.4,29.98,NNE,22,2.0,6.0,100,0.00,,,0.00,Wunderground v.1.15,2013-09-02 13:18:00,
2013-09-02 08:23:00,53.9,53.9,29.99,ENE,60,2.0,6.0,100,0.00,,,0.00,Wunderground v.1.15,2013-09-02 13:23:00,
2013-09-02 08:28:00,54.4,54.4,29.98,NE,51,1.0,6.0,100,0.00,,,0.00,Wunderground v.1.15,2013-09-02 13:28:00,
2013-09-02 08:32:00,54.6,54.6,29.98,NE,55,2.0,6.0,100,0.00,,,0.00,Wunderground v.1.15,2013-09-02 13:32:00,
2013-09-02 08:34:00,54.7,54.7,29.98,NE,53,2.0,6.0,100,0.00,,,0.00,Wunderground v.1.15,2013-09-02 13:34:00,
2013-09-02 08:38:00,55.5,55.5,29.98,NE,43,2.0,6.0,100,0.00,,,0.00,Wunderground v.1.15,2013-09-02 13:38:00,
2013-09-02 08:40:00,55.8,55.8,29.98,NNE,23,2.0,6.0,100,0.00,,,0.00,Wunderground v.1.15,2013-09-02 13:40:00,
2013-09-02 08:43:00,56.4,56.1,29.99,ENE,71,2.0,6.0,99,0.00,,,0.00,Wunderground v.1.15,2013-09-02 13:43:00,
2013-09-02 08:45:00,56.7,56.4,29.99,NE,43,2.0,6.0,99,0.00,,,0.00,Wunderground v.1.15,2013-09-02 13:45:00,
2013-09-02 08:47:00,57.0,56.4,29.98,ENE,63,2.0,6.0,98,0.00,,,0.00,Wunderground v.1.15,2013-09-02 13:47:00,
2013-09-02 08:52:00,57.6,56.5,29.99,NE,50,1.0,6.0,96,0.00,,,0.00,Wunderground v.1.15,2013-09-02 13:52:00,
2013-09-02 08:54:00,57.9,56.5,29.99,ENE,59,2.0,6.0,95,0.00,,,0.00,Wunderground v.1.15,2013-09-02 13:54:00,
2013-09-02 08:58:00,58.5,56.5,29.99,NE,41,2.0,6.0,93,0.00,,,0.00,Wunderground v.1.15,2013-09-02 13:58:00,
2013-09-02 09:00:00,58.8,56.8,29.98,NE,53,1.0,6.0,93,0.00,,,0.00,Wunderground v.1.15,2013-09-02 14:00:00,
2013-09-02 09:02:00,59.0,56.4,29.99,NE,56,2.0,6.0,91,0.00,,,0.00,Wunderground v.1.15,2013-09-02 14:02:00,
2013-09-02 09:04:00,59.2,56.6,29.99,ENE,66,1.0,6.0,91,0.00,,,0.00,Wunderground v.1.15,2013-09-02 14:04:00,
2013-09-02 09:05:00,59.4,56.2,29.99,NNE,20,1.0,6.0,89,0.00,,,0.00,Wunderground v.1.15,2013-09-02 14:05:00,
2013-09-02 09:07:00,59.6,56.4,29.99,NE,51,1.0,6.0,89,0.00,,,0.00,Wunderground v.1.15,2013-09-02 14:07:00,
2013-09-02 09:11:00,59.9,56.3,29.99,NE,37,2.0,6.0,88,0.00,,,0.00,Wunderground v.1.15,2013-09-02 14:11:00,
2013-09-02 09:14:00,60.0,56.1,29.99,NE,39,2.0,6.0,87,0.00,,,0.00,Wunderground v.1.15,2013-09-02 14:14:00,
2013-09-02 09:18:00,60.3,56.4,29.99,ENE,65,2.0,6.0,87,0.00,,,0.00,Wunderground v.1.15,2013-09-02 14:18:00,
2013-09-02 09:20:00,60.4,55.9,29.99,NE,55,2.0,6.0,85,0.00,,,0.00,Wunderground v.1.15,2013-09-02 14:20:00,
2013-09-02 09:22:00,60.5,56.3,29.99,NE,43,2.0,6.0,86,0.00,,,0.00,Wunderground v.1.15,2013-09-02 14:22:00,
2013-09-02 09:25:00,60.7,55.8,29.99,ENE,65,2.0,6.0,84,0.00,,,0.00,Wunderground v.1.15,2013-09-02 14:25:00,
2013-09-02 09:28:00,60.8,55.6,29.99,NNE,30,2.0,6.0,83,0.00,,,0.00,Wunderground v.1.15,2013-09-02 14:28:00,
2013-09-02 09:30:00,60.9,55.7,29.99,NE,53,3.0,3.0,83,0.00,,,0.00,Wunderground v.1.15,2013-09-02 14:30:00,
2013-09-02 09:31:00,61.0,56.1,29.99,NNE,15,3.0,6.0,84,0.00,,,0.00,Wunderground v.1.15,2013-09-02 14:31:00,
2013-09-02 09:33:00,61.2,56.0,30.00,ENE,62,2.0,6.0,83,0.00,,,0.00,Wunderground v.1.15,2013-09-02 14:33:00,
2013-09-02 09:38:00,61.7,56.1,30.00,NE,51,2.0,6.0,82,0.00,,,0.00,Wunderground v.1.15,2013-09-02 14:38:00,
2013-09-02 09:40:00,61.8,56.2,30.00,NE,53,2.0,6.0,82,0.00,,,0.00,Wunderground v.1.15,2013-09-02 14:40:00,
2013-09-02 09:46:00,62.2,56.6,30.00,ENE,58,3.0,6.0,82,0.00,,,0.00,Wunderground v.1.15,2013-09-02 14:46:00,
2013-09-02 09:48:00,62.4,56.5,30.00,NE,48,3.0,6.0,81,0.00,,,0.00,Wunderground v.1.15,2013-09-02 14:48:00,
2013-09-02 09:50:00,62.3,56.0,30.00,ENE,61,3.0,6.0,80,0.00,,,0.00,Wunderground v.1.15,2013-09-02 14:50:00,
2013-09-02 09:51:00,62.4,56.1,30.00,NE,48,3.0,6.0,80,0.00,,,0.00,Wunderground v.1.15,2013-09-02 14:51:00,
2013-09-02 09:53:00,62.5,56.2,29.99,NE,50,3.0,6.0,80,0.00,,,0.00,Wunderground v.1.15,2013-09-02 14:53:00,
2013-09-02 09:56:00,62.7,56.8,30.00,NE,43,3.0,6.0,81,0.00,,,0.00,Wunderground v.1.15,2013-09-02 14:56:00,
2013-09-02 09:58:00,62.9,56.6,30.00,ENE,66,3.0,6.0,80,0.00,,,0.00,Wunderground v.1.15,2013-09-02 14:58:00,
2013-09-02 10:02:00,63.0,56.0,30.00,NE,50,4.0,6.0,78,0.00,,,0.00,Wunderground v.1.15,2013-09-02 15:02:00,
2013-09-02 10:04:00,63.1,56.1,30.00,NNE,32,4.0,6.0,78,0.00,,,0.00,Wunderground v.1.15,2013-09-02 15:04:00,
2013-09-02 10:06:00,63.3,56.7,30.00,ENE,57,4.0,6.0,79,0.00,,,0.00,Wunderground v.1.15,2013-09-02 15:06:00,
2013-09-02 10:08:00,63.5,56.5,30.00,NE,37,4.0,6.0,78,0.00,,,0.00,Wunderground v.1.15,2013-09-02 15:08:00,
2013-09-02 10:10:00,63.6,56.3,30.00,ENE,58,4.0,4.0,77,0.00,,,0.00,Wunderground v.1.15,2013-09-02 15:10:00,
2013-09-02 10:13:00,63.8,56.4,30.00,NE,39,3.0,6.0,77,0.00,,,0.00,Wunderground v.1.15,2013-09-02 15:13:00,
2013-09-02 10:18:00,64.1,56.4,30.00,NNE,25,4.0,6.0,76,0.00,,,0.00,Wunderground v.1.15,2013-09-02 15:18:00,
2013-09-02 10:20:00,64.1,56.7,30.00,NE,54,4.0,6.0,77,0.00,,,0.00,Wunderground v.1.15,2013-09-02 15:20:00,
2013-09-02 10:22:00,64.3,56.6,30.00,NE,41,4.0,6.0,76,0.00,,,0.00,Wunderground v.1.15,2013-09-02 15:22:00,
2013-09-02 10:24:00,64.4,56.7,30.00,NE,43,4.0,6.0,76,0.00,,,0.00,Wunderground v.1.15,2013-09-02 15:24:00,
2013-09-02 10:30:00,64.8,57.1,30.00,NNE,32,3.0,3.0,76,0.00,,,0.00,Wunderground v.1.15,2013-09-02 15:30:00,
2013-09-02 10:32:00,64.9,56.0,30.00,ENE,58,3.0,5.0,73,0.00,,,0.00,Wunderground v.1.15,2013-09-02 15:32:00,
2013-09-02 10:34:00,64.9,56.8,30.00,ENE,75,4.0,6.0,75,0.00,,,0.00,Wunderground v.1.15,2013-09-02 15:34:00,
2013-09-02 10:35:00,65.0,56.5,30.00,NNW,348,4.0,6.0,74,0.00,,,0.00,Wunderground v.1.15,2013-09-02 15:35:00,
2013-09-02 10:40:00,65.1,56.6,30.00,NNE,33,4.0,6.0,74,0.00,,,0.00,Wunderground v.1.15,2013-09-02 15:40:00,
2013-09-02 10:42:00,65.2,56.3,30.00,ENE,58,4.0,6.0,73,0.00,,,0.00,Wunderground v.1.15,2013-09-02 15:42:00,
2013-09-02 10:44:00,65.3,56.8,30.00,NE,40,4.0,6.0,74,0.00,,,0.00,Wunderground v.1.15,2013-09-02 15:44:00,
2013-09-02 10:46:00,65.4,56.1,30.00,ENE,75,4.0,6.0,72,0.00,,,0.00,Wunderground v.1.15,2013-09-02 15:46:00,
2013-09-02 10:50:00,65.7,56.8,30.00,ENE,69,4.0,6.0,73,0.00,,,0.00,Wunderground v.1.15,2013-09-02 15:50:00,
2013-09-02 10:52:00,65.8,56.1,30.00,NE,51,4.0,6.0,71,0.00,,,0.00,Wunderground v.1.15,2013-09-02 15:52:00,
2013-09-02 10:57:00,65.9,56.6,30.00,ESE,103,4.0,6.0,72,0.00,,,0.00,Wunderground v.1.15,2013-09-02 15:57:00,
2013-09-02 11:00:00,66.1,57.2,30.00,East,97,3.0,3.0,73,0.00,,,0.00,Wunderground v.1.15,2013-09-02 16:00:00,
2013-09-02 11:06:00,66.5,56.8,30.00,East,90,3.0,7.0,71,0.00,,,0.00,Wunderground v.1.15,2013-09-02 16:06:00,
2013-09-02 11:08:00,66.5,57.2,30.00,ENE,58,3.0,7.0,72,0.00,,,0.00,Wunderground v.1.15,2013-09-02 16:08:00,
2013-09-02 11:14:00,66.7,57.0,30.00,ENE,69,4.0,6.0,71,0.00,,,0.00,Wunderground v.1.15,2013-09-02 16:14:00,
2013-09-02 11:16:00,66.7,57.0,30.00,ENE,60,4.0,6.0,71,0.00,,,0.00,Wunderground v.1.15,2013-09-02 16:16:00,
2013-09-02 11:17:00,66.8,57.5,30.00,NE,44,4.0,6.0,72,0.00,,,0.00,Wunderground v.1.15,2013-09-02 16:17:00,
2013-09-02 11:24:00,67.1,57.8,30.00,NE,38,3.0,7.0,72,0.00,,,0.00,Wunderground v.1.15,2013-09-02 16:24:00,
2013-09-02 11:28:00,67.3,57.6,30.00,ENE,72,3.0,7.0,71,0.00,,,0.00,Wunderground v.1.15,2013-09-02 16:28:00,
2013-09-02 11:30:00,67.5,58.2,30.00,NNE,23,3.0,6.0,72,0.00,,,0.00,Wunderground v.1.15,2013-09-02 16:30:00,
2013-09-02 11:34:00,67.8,58.1,30.00,NE,55,4.0,6.0,71,0.00,,,0.00,Wunderground v.1.15,2013-09-02 16:34:00,
2013-09-02 11:36:00,68.0,57.8,30.00,NE,45,3.0,6.0,70,0.00,,,0.00,Wunderground v.1.15,2013-09-02 16:36:00,
2013-09-02 11:38:00,68.3,58.1,30.00,ENE,68,3.0,6.0,70,0.00,,,0.00,Wunderground v.1.15,2013-09-02 16:38:00,
2013-09-02 11:44:00,69.0,58.4,30.00,ENE,59,2.0,6.0,69,0.00,,,0.00,Wunderground v.1.15,2013-09-02 16:44:00,
2013-09-02 11:46:00,69.1,58.1,30.00,ENE,63,2.0,6.0,68,0.00,,,0.00,Wunderground v.1.15,2013-09-02 16:46:00,
2013-09-02 11:50:00,69.0,58.0,30.00,NNE,23,3.0,6.0,68,0.00,,,0.00,Wunderground v.1.15,2013-09-02 16:50:00,
2013-09-02 11:52:00,69.0,58.0,30.00,NNE,21,3.0,6.0,68,0.00,,,0.00,Wunderground v.1.15,2013-09-02 16:52:00,
2013-09-02 11:58:00,68.8,57.4,30.00,NE,51,4.0,6.0,67,0.00,,,0.00,Wunderground v.1.15,2013-09-02 16:58:00,
2013-09-02 12:01:00,68.7,57.7,30.00,ESE,117,3.0,6.0,68,0.00,,,0.00,Wunderground v.1.15,2013-09-02 17:01:00,
2013-09-02 12:04:00,68.6,57.2,29.99,NE,49,3.0,6.0,67,0.00,,,0.00,Wunderground v.1.15,2013-09-02 17:04:00,
2013-09-02 12:08:00,68.7,58.1,29.99,NE,55,4.0,6.0,69,0.00,,,0.00,Wunderground v.1.15,2013-09-02 17:08:00,
2013-09-02 12:10:00,68.8,57.4,29.99,NE,53,4.0,4.0,67,0.00,,,0.00,Wunderground v.1.15,2013-09-02 17:10:00,
2013-09-02 12:14:00,68.9,57.1,29.99,ENE,68,4.0,7.0,66,0.00,,,0.00,Wunderground v.1.15,2013-09-02 17:14:00,
2013-09-02 12:16:00,69.0,57.2,29.99,NE,41,5.0,7.0,66,0.00,,,0.00,Wunderground v.1.15,2013-09-02 17:16:00,
2013-09-02 12:18:00,69.2,56.9,29.99,NNE,30,4.0,7.0,65,0.00,,,0.00,Wunderground v.1.15,2013-09-02 17:18:00,
2013-09-02 12:20:00,69.3,57.9,29.99,ENE,58,4.0,5.0,67,0.00,,,0.00,Wunderground v.1.15,2013-09-02 17:20:00,
2013-09-02 12:21:00,69.4,57.5,29.99,ENE,57,4.0,5.0,66,0.00,,,0.00,Wunderground v.1.15,2013-09-02 17:21:00,
2013-09-02 12:23:00,69.5,57.6,29.99,ENE,65,4.0,5.0,66,0.00,,,0.00,Wunderground v.1.15,2013-09-02 17:23:00,
2013-09-02 12:26:00,69.5,58.1,29.99,ENE,60,4.0,5.0,67,0.00,,,0.00,Wunderground v.1.15,2013-09-02 17:26:00,
2013-09-02 12:28:00,69.6,58.2,29.98,NE,56,4.0,5.0,67,0.00,,,0.00,Wunderground v.1.15,2013-09-02 17:28:00,
2013-09-02 12:30:00,69.6,57.7,29.98,NW,321,4.0,4.0,66,0.00,,,0.00,Wunderground v.1.15,2013-09-02 17:30:00,
2013-09-02 12:34:00,69.8,57.5,29.98,NE,42,4.0,4.0,65,0.00,,,0.00,Wunderground v.1.15,2013-09-02 17:34:00,
2013-09-02 12:38:00,70.0,56.8,29.98,NE,46,4.0,4.0,63,0.00,,,0.00,Wunderground v.1.15,2013-09-02 17:38:00,
2013-09-02 12:40:00,70.0,56.8,29.98,NE,39,4.0,4.0,63,0.00,,,0.00,Wunderground v.1.15,2013-09-02 17:40:00,
2013-09-02 12:43:00,70.4,58.1,29.98,NE,56,3.0,4.0,65,0.00,,,0.00,Wunderground v.1.15,2013-09-02 17:43:00,
2013-09-02 12:45:00,70.6,57.8,29.98,NE,49,3.0,5.0,64,0.00,,,0.00,Wunderground v.1.15,2013-09-02 17:45:00,
2013-09-02 12:48:00,70.6,56.9,29.98,NNE,29,3.0,5.0,62,0.00,,,0.00,Wunderground v.1.15,2013-09-02 17:48:00,
2013-09-02 12:50:00,70.6,56.5,29.98,NNE,27,3.0,3.0,61,0.00,,,0.00,Wunderground v.1.15,2013-09-02 17:50:00,
2013-09-02 12:52:00,70.6,56.5,29.98,NE,41,3.0,4.0,61,0.00,,,0.00,Wunderground v.1.15,2013-09-02 17:52:00,
2013-09-02 12:56:00,70.3,56.7,29.97,NE,50,4.0,7.0,62,0.00,,,0.00,Wunderground v.1.15,2013-09-02 17:56:00,
2013-09-02 12:58:00,70.3,56.7,29.97,ENE,64,4.0,7.0,62,0.00,,,0.00,Wunderground v.1.15,2013-09-02 17:58:00,
2013-09-02 13:00:00,70.3,56.7,29.97,ENE,58,4.0,4.0,62,0.00,,,0.00,Wunderground v.1.15,2013-09-02 18:00:00,
2013-09-02 13:02:00,70.3,55.8,29.97,NE,52,4.0,6.0,60,0.00,,,0.00,Wunderground v.1.15,2013-09-02 18:02:00,
2013-09-02 13:05:00,70.4,57.2,29.97,North,359,4.0,8.0,63,0.00,,,0.00,Wunderground v.1.15,2013-09-02 18:05:00,
2013-09-02 13:08:00,70.5,56.9,29.97,NNE,31,4.0,8.0,62,0.00,,,0.00,Wunderground v.1.15,2013-09-02 18:08:00,
2013-09-02 13:10:00,70.6,57.4,29.97,NE,56,4.0,4.0,63,0.00,,,0.00,Wunderground v.1.15,2013-09-02 18:10:00,
2013-09-02 13:12:00,70.8,57.6,29.97,NE,55,3.0,8.0,63,0.00,,,0.00,Wunderground v.1.15,2013-09-02 18:12:00,
2013-09-02 13:14:00,70.9,56.8,29.97,NE,51,3.0,8.0,61,0.00,,,0.00,Wunderground v.1.15,2013-09-02 18:14:00,
2013-09-02 13:16:00,71.0,56.9,29.97,NE,50,3.0,8.0,61,0.00,,,0.00,Wunderground v.1.15,2013-09-02 18:16:00,
2013-09-02 13:18:00,71.1,58.3,29.97,NE,53,3.0,8.0,64,0.00,,,0.00,Wunderground v.1.15,2013-09-02 18:18:00,
2013-09-02 13:20:00,71.4,57.2,29.97,NNE,22,3.0,8.0,61,0.00,,,0.00,Wunderground v.1.15,2013-09-02 18:20:00,
2013-09-02 13:24:00,71.8,57.6,29.97,East,80,3.0,8.0,61,0.00,,,0.00,Wunderground v.1.15,2013-09-02 18:24:00,
2013-09-02 13:30:00,72.2,58.5,29.97,NNE,30,2.0,8.0,62,0.00,,,0.00,Wunderground v.1.15,2013-09-02 18:30:00,
2013-09-02 13:32:00,72.2,57.5,29.97,NE,35,3.0,8.0,60,0.00,,,0.00,Wunderground v.1.15,2013-09-02 18:32:00,
2013-09-02 13:36:00,71.9,57.3,29.97,ENE,59,3.0,8.0,60,0.00,,,0.00,Wunderground v.1.15,2013-09-02 18:36:00,
2013-09-02 13:38:00,71.6,57.0,29.97,NE,35,4.0,8.0,60,0.00,,,0.00,Wunderground v.1.15,2013-09-02 18:38:00,
2013-09-02 13:42:00,71.7,57.5,29.96,North,6,3.0,8.0,61,0.00,,,0.00,Wunderground v.1.15,2013-09-02 18:42:00,
2013-09-02 13:44:00,71.8,57.2,29.96,NW,314,3.0,8.0,60,0.00,,,0.00,Wunderground v.1.15,2013-09-02 18:44:00,
2013-09-02 13:46:00,72.1,57.4,29.96,NE,45,3.0,8.0,60,0.00,,,0.00,Wunderground v.1.15,2013-09-02 18:46:00,
2013-09-02 13:47:00,72.2,56.6,29.96,NE,42,3.0,8.0,58,0.00,,,0.00,Wunderground v.1.15,2013-09-02 18:47:00,
2013-09-02 13:49:00,72.3,58.1,29.96,NE,56,3.0,3.0,61,0.00,,,0.00,Wunderground v.1.15,2013-09-02 18:49:00,
2013-09-02 13:56:00,72.3,56.7,29.96,NE,51,4.0,8.0,58,0.00,,,0.00,Wunderground v.1.15,2013-09-02 18:56:00,
2013-09-02 13:58:00,72.3,58.1,29.96,NE,52,3.0,8.0,61,0.00,,,0.00,Wunderground v.1.15,2013-09-02 18:58:00,
2013-09-02 14:00:00,72.3,58.1,29.96,NE,50,4.0,4.0,61,0.00,,,0.00,Wunderground v.1.15,2013-09-02 19:00:00,
2013-09-02 14:02:00,72.4,57.7,29.96,NE,56,3.0,8.0,60,0.00,,,0.00,Wunderground v.1.15,2013-09-02 19:02:00,
2013-09-02 14:04:00,72.6,58.4,29.96,ENE,58,3.0,8.0,61,0.00,,,0.00,Wunderground v.1.15,2013-09-02 19:04:00,
2013-09-02 14:06:00,72.7,57.5,29.96,NE,42,3.0,8.0,59,0.00,,,0.00,Wunderground v.1.15,2013-09-02 19:06:00,
2013-09-02 14:07:00,72.8,57.2,29.96,NE,56,3.0,8.0,58,0.00,,,0.00,Wunderground v.1.15,2013-09-02 19:07:00,
2013-09-02 14:09:00,72.6,57.4,29.96,ENE,60,3.0,8.0,59,0.00,,,0.00,Wunderground v.1.15,2013-09-02 19:09:00,
2013-09-02 14:12:00,72.6,58.8,29.96,ENE,72,3.0,8.0,62,0.00,,,0.00,Wunderground v.1.15,2013-09-02 19:12:00,
2013-09-02 14:14:00,72.7,58.0,29.96,SSE,160,4.0,8.0,60,0.00,,,0.00,Wunderground v.1.15,2013-09-02 19:14:00,
2013-09-02 14:16:00,72.9,57.3,29.96,NW,304,3.0,8.0,58,0.00,,,0.00,Wunderground v.1.15,2013-09-02 19:16:00,
2013-09-02 14:20:00,73.4,57.2,29.96,NE,52,2.0,8.0,57,0.00,,,0.00,Wunderground v.1.15,2013-09-02 19:20:00,
2013-09-02 14:24:00,73.3,57.6,29.96,ENE,61,3.0,8.0,58,0.00,,,0.00,Wunderground v.1.15,2013-09-02 19:24:00,
2013-09-02 14:26:00,73.0,56.9,29.96,NE,50,3.0,8.0,57,0.00,,,0.00,Wunderground v.1.15,2013-09-02 19:26:00,
2013-09-02 14:31:00,73.0,57.3,29.96,SW,228,4.0,8.0,58,0.00,,,0.00,Wunderground v.1.15,2013-09-02 19:31:00,
2013-09-02 14:34:00,73.3,57.6,29.96,West,260,3.0,8.0,58,0.00,,,0.00,Wunderground v.1.15,2013-09-02 19:34:00,
2013-09-02 14:36:00,73.6,58.4,29.96,SW,224,3.0,8.0,59,0.00,,,0.00,Wunderground v.1.15,2013-09-02 19:36:00,
2013-09-02 14:38:00,73.9,57.7,29.96,SW,218,2.0,8.0,57,0.00,,,0.00,Wunderground v.1.15,2013-09-02 19:38:00,
2013-09-02 14:42:00,74.0,56.3,29.96,NE,53,2.0,8.0,54,0.00,,,0.00,Wunderground v.1.15,2013-09-02 19:42:00,
2013-09-02 14:44:00,74.0,56.8,29.96,NE,50,2.0,8.0,55,0.00,,,0.00,Wunderground v.1.15,2013-09-02 19:44:00,
2013-09-02 14:46:00,73.9,57.2,29.96,NE,44,3.0,8.0,56,0.00,,,0.00,Wunderground v.1.15,2013-09-02 19:46:00,
2013-09-02 14:48:00,73.7,58.0,29.96,NE,42,3.0,8.0,58,0.00,,,0.00,Wunderground v.1.15,2013-09-02 19:48:00,
2013-09-02 14:51:00,73.6,56.4,29.95,ENE,76,3.0,8.0,55,0.00,,,0.00,Wunderground v.1.15,2013-09-02 19:51:00,
2013-09-02 14:53:00,73.8,57.6,29.95,ENE,58,3.0,8.0,57,0.00,,,0.00,Wunderground v.1.15,2013-09-02 19:53:00,
2013-09-02 14:58:00,74.5,58.3,29.95,NE,41,2.0,8.0,57,0.00,,,0.00,Wunderground v.1.15,2013-09-02 19:58:00,
2013-09-02 15:00:00,74.5,56.8,29.95,NE,35,2.0,8.0,54,0.00,,,0.00,Wunderground v.1.15,2013-09-02 20:00:00,
2013-09-02 15:06:00,73.8,55.1,29.95,ENE,57,4.0,8.0,52,0.00,,,0.00,Wunderground v.1.15,2013-09-02 20:06:00,
2013-09-02 15:08:00,73.7,56.0,29.95,ENE,57,4.0,8.0,54,0.00,,,0.00,Wunderground v.1.15,2013-09-02 20:08:00,
2013-09-02 15:10:00,73.7,56.0,29.95,ENE,58,4.0,4.0,54,0.00,,,0.00,Wunderground v.1.15,2013-09-02 20:10:00,
2013-09-02 15:13:00,73.7,55.5,29.95,NE,52,3.0,8.0,53,0.00,,,0.00,Wunderground v.1.15,2013-09-02 20:13:00,
2013-09-02 15:16:00,73.7,55.5,29.95,NE,54,3.0,8.0,53,0.00,,,0.00,Wunderground v.1.15,2013-09-02 20:16:00,
2013-09-02 15:20:00,73.7,55.5,29.95,ENE,59,3.0,8.0,53,0.00,,,0.00,Wunderground v.1.15,2013-09-02 20:20:00,
2013-09-02 15:24:00,73.3,56.2,29.95,ENE,58,4.0,8.0,55,0.00,,,0.00,Wunderground v.1.15,2013-09-02 20:24:00,
2013-09-02 15:26:00,73.4,55.7,29.95,NNE,23,4.0,9.0,54,0.00,,,0.00,Wunderground v.1.15,2013-09-02 20:26:00,
2013-09-02 15:30:00,73.5,54.3,29.95,NE,50,4.0,8.0,51,0.00,,,0.00,Wunderground v.1.15,2013-09-02 20:30:00,
2013-09-02 15:32:00,73.3,54.6,29.95,NE,51,4.0,8.0,52,0.00,,,0.00,Wunderground v.1.15,2013-09-02 20:32:00,
2013-09-02 15:33:00,73.4,54.7,29.95,ENE,71,4.0,8.0,52,0.00,,,0.00,Wunderground v.1.15,2013-09-02 20:33:00,
2013-09-02 15:35:00,73.7,55.5,29.95,NNE,30,4.0,8.0,53,0.00,,,0.00,Wunderground v.1.15,2013-09-02 20:35:00,
2013-09-02 15:40:00,74.1,55.3,29.95,ENE,71,2.0,8.0,52,0.00,,,0.00,Wunderground v.1.15,2013-09-02 20:40:00,
2013-09-02 15:42:00,74.3,56.1,29.95,ENE,66,2.0,8.0,53,0.00,,,0.00,Wunderground v.1.15,2013-09-02 20:42:00,
2013-09-02 15:44:00,74.3,55.0,29.95,NE,37,2.0,8.0,51,0.00,,,0.00,Wunderground v.1.15,2013-09-02 20:44:00,
2013-09-02 15:46:00,74.3,56.1,29.95,WNW,298,2.0,8.0,53,0.00,,,0.00,Wunderground v.1.15,2013-09-02 20:46:00,
2013-09-02 15:50:00,74.9,56.6,29.95,NE,53,2.0,2.0,53,0.00,,,0.00,Wunderground v.1.15,2013-09-02 20:50:00,
2013-09-02 15:54:00,74.9,55.6,29.95,NE,44,2.0,8.0,51,0.00,,,0.00,Wunderground v.1.15,2013-09-02 20:54:00,
2013-09-02 15:56:00,74.6,55.8,29.94,NNW,340,2.0,8.0,52,0.00,,,0.00,Wunderground v.1.15,2013-09-02 20:56:00,
2013-09-02 15:58:00,74.5,56.8,29.94,ENE,68,2.0,8.0,54,0.00,,,0.00,Wunderground v.1.15,2013-09-02 20:58:00,
2013-09-02 15:59:00,74.6,55.3,29.94,East,96,3.0,3.0,51,0.00,,,0.00,Wunderground v.1.15,2013-09-02 20:59:00,
2013-09-02 16:01:00,74.6,55.8,29.94,NE,44,3.0,6.0,52,0.00,,,0.00,Wunderground v.1.15,2013-09-02 21:01:00,
2013-09-02 16:06:00,74.5,55.7,29.94,ENE,59,2.0,8.0,52,0.00,,,0.00,Wunderground v.1.15,2013-09-02 21:06:00,
2013-09-02 16:08:00,74.4,55.6,29.94,NE,56,3.0,8.0,52,0.00,,,0.00,Wunderground v.1.15,2013-09-02 21:08:00,
2013-09-02 16:14:00,75.0,56.7,29.94,NE,38,2.0,8.0,53,0.00,,,0.00,Wunderground v.1.15,2013-09-02 21:14:00,
2013-09-02 16:16:00,75.1,56.8,29.94,NE,50,2.0,8.0,53,0.00,,,0.00,Wunderground v.1.15,2013-09-02 21:16:00,
2013-09-02 16:19:00,74.8,57.5,29.94,NE,50,2.0,8.0,55,0.00,,,0.00,Wunderground v.1.15,2013-09-02 21:19:00,
2013-09-02 16:21:00,74.7,56.4,29.94,NE,51,3.0,8.0,53,0.00,,,0.00,Wunderground v.1.15,2013-09-02 21:21:00,
2013-09-02 16:26:00,74.6,56.3,29.94,ENE,75,3.0,8.0,53,0.00,,,0.00,Wunderground v.1.15,2013-09-02 21:26:00,
2013-09-02 16:28:00,74.8,57.5,29.94,NE,36,2.0,8.0,55,0.00,,,0.00,Wunderground v.1.15,2013-09-02 21:28:00,
2013-09-02 16:30:00,74.9,56.1,29.94,NE,53,2.0,2.0,52,0.00,,,0.00,Wunderground v.1.15,2013-09-02 21:30:00,
2013-09-02 16:32:00,75.0,57.2,29.94,NNE,20,2.0,3.0,54,0.00,,,0.00,Wunderground v.1.15,2013-09-02 21:32:00,
2013-09-02 16:34:00,74.9,57.6,29.94,NE,56,2.0,5.0,55,0.00,,,0.00,Wunderground v.1.15,2013-09-02 21:34:00,
2013-09-02 16:36:00,74.7,56.4,29.94,NE,44,2.0,8.0,53,0.00,,,0.00,Wunderground v.1.15,2013-09-02 21:36:00,
2013-09-02 16:38:00,74.6,56.9,29.94,NE,41,3.0,8.0,54,0.00,,,0.00,Wunderground v.1.15,2013-09-02 21:38:00,
2013-09-02 16:41:00,74.5,56.8,29.94,NE,50,3.0,8.0,54,0.00,,,0.00,Wunderground v.1.15,2013-09-02 21:41:00,
2013-09-02 16:43:00,74.7,58.0,29.94,NE,42,2.0,8.0,56,0.00,,,0.00,Wunderground v.1.15,2013-09-02 21:43:00,
2013-09-02 16:46:00,74.9,57.1,29.94,NE,52,1.0,8.0,54,0.00,,,0.00,Wunderground v.1.15,2013-09-02 21:46:00,
2013-09-02 16:48:00,74.9,57.1,29.94,NE,53,2.0,8.0,54,0.00,,,0.00,Wunderground v.1.15,2013-09-02 21:48:00,
2013-09-02 16:50:00,74.7,56.4,29.94,NE,56,2.0,8.0,53,0.00,,,0.00,Wunderground v.1.15,2013-09-02 21:50:00,
2013-09-02 16:52:00,74.3,56.1,29.94,NE,53,2.0,8.0,53,0.00,,,0.00,Wunderground v.1.15,2013-09-02 21:52:00,
2013-09-02 16:58:00,73.6,55.9,29.93,NE,36,4.0,8.0,54,0.00,,,0.00,Wunderground v.1.15,2013-09-02 21:58:00,
2013-09-02 17:00:00,73.6,56.4,29.93,NE,42,3.0,3.0,55,0.00,,,0.00,Wunderground v.1.15,2013-09-02 22:00:00,
2013-09-02 17:03:00,73.7,57.0,29.93,NNE,18,3.0,8.0,56,0.00,,,0.00,Wunderground v.1.15,2013-09-02 22:03:00,
2013-09-02 17:05:00,73.9,57.2,29.93,NE,41,2.0,8.0,56,0.00,,,0.00,Wunderground v.1.15,2013-09-02 22:05:00,
2013-09-02 17:07:00,73.9,57.2,29.93,NE,55,3.0,8.0,56,0.00,,,0.00,Wunderground v.1.15,2013-09-02 22:07:00,
2013-09-02 17:12:00,73.9,56.7,29.93,ENE,59,2.0,8.0,55,0.00,,,0.00,Wunderground v.1.15,2013-09-02 22:12:00,
2013-09-02 17:14:00,74.0,56.8,29.93,NE,50,2.0,8.0,55,0.00,,,0.00,Wunderground v.1.15,2013-09-02 22:14:00,
2013-09-02 17:18:00,74.0,57.3,29.93,NE,55,2.0,8.0,56,0.00,,,0.00,Wunderground v.1.15,2013-09-02 22:18:00,
2013-09-02 17:20:00,74.0,56.8,29.93,NE,49,2.0,8.0,55,0.00,,,0.00,Wunderground v.1.15,2013-09-02 22:20:00,
2013-09-02 17:22:00,73.9,56.7,29.93,ENE,64,2.0,8.0,55,0.00,,,0.00,Wunderground v.1.15,2013-09-02 22:22:00,
2013-09-02 17:23:00,73.8,55.6,29.93,NE,47,2.0,8.0,53,0.00,,,0.00,Wunderground v.1.15,2013-09-02 22:23:00,
2013-09-02 17:25:00,73.7,56.0,29.93,NE,38,3.0,8.0,54,0.00,,,0.00,Wunderground v.1.15,2013-09-02 22:25:00,
2013-09-02 17:27:00,73.7,56.5,29.93,ENE,63,2.0,8.0,55,0.00,,,0.00,Wunderground v.1.15,2013-09-02 22:27:00,
2013-09-02 17:29:00,73.7,56.5,29.93,NE,47,2.0,8.0,55,0.00,,,0.00,Wunderground v.1.15,2013-09-02 22:29:00,
2013-09-02 17:34:00,73.7,57.0,29.93,ENE,59,2.0,8.0,56,0.00,,,0.00,Wunderground v.1.15,2013-09-02 22:34:00,
2013-09-02 17:36:00,73.6,55.4,29.94,ENE,63,2.0,8.0,53,0.00,,,0.00,Wunderground v.1.15,2013-09-02 22:36:00,
2013-09-02 17:40:00,73.3,56.2,29.93,NE,55,2.0,8.0,55,0.00,,,0.00,Wunderground v.1.15,2013-09-02 22:40:00,
2013-09-02 17:42:00,73.2,56.1,29.93,NE,50,3.0,8.0,55,0.00,,,0.00,Wunderground v.1.15,2013-09-02 22:42:00,
2013-09-02 17:45:00,73.1,56.5,29.93,NE,52,3.0,8.0,56,0.00,,,0.00,Wunderground v.1.15,2013-09-02 22:45:00,
2013-09-02 17:47:00,72.8,54.7,29.93,ENE,58,4.0,8.0,53,0.00,,,0.00,Wunderground v.1.15,2013-09-02 22:47:00,
2013-09-02 17:54:00,72.5,55.9,29.93,NE,52,3.0,8.0,56,0.00,,,0.00,Wunderground v.1.15,2013-09-02 22:54:00,
2013-09-02 17:56:00,72.5,56.4,29.93,NE,47,3.0,8.0,57,0.00,,,0.00,Wunderground v.1.15,2013-09-02 22:56:00,
2013-09-02 18:00:00,72.4,55.8,29.93,NE,56,2.0,2.0,56,0.00,,,0.00,Wunderground v.1.15,2013-09-02 23:00:00,
2013-09-02 18:02:00,72.6,57.0,29.93,NE,44,2.0,3.0,58,0.00,,,0.00,Wunderground v.1.15,2013-09-02 23:02:00,
2013-09-02 18:07:00,72.4,56.3,29.93,ENE,60,2.0,8.0,57,0.00,,,0.00,Wunderground v.1.15,2013-09-02 23:07:00,
2013-09-02 18:13:00,72.2,56.6,29.93,NE,56,2.0,8.0,58,0.00,,,0.00,Wunderground v.1.15,2013-09-02 23:13:00,
2013-09-02 18:18:00,72.0,55.9,29.93,NE,46,2.0,8.0,57,0.00,,,0.00,Wunderground v.1.15,2013-09-02 23:18:00,
2013-09-02 18:20:00,71.9,55.8,29.93,NE,55,2.0,8.0,57,0.00,,,0.00,Wunderground v.1.15,2013-09-02 23:20:00,
2013-09-02 18:22:00,71.8,55.3,29.93,NE,52,2.0,8.0,56,0.00,,,0.00,Wunderground v.1.15,2013-09-02 23:22:00,
2013-09-02 18:24:00,71.7,55.7,29.93,ENE,62,2.0,8.0,57,0.00,,,0.00,Wunderground v.1.15,2013-09-02 23:24:00,
2013-09-02 18:29:00,71.5,56.4,29.93,NE,40,2.0,2.0,59,0.00,,,0.00,Wunderground v.1.15,2013-09-02 23:29:00,
2013-09-02 18:35:00,71.1,56.0,29.93,NE,41,2.0,8.0,59,0.00,,,0.00,Wunderground v.1.15,2013-09-02 23:35:00,
2013-09-02 18:38:00,70.9,55.4,29.93,NE,55,2.0,8.0,58,0.00,,,0.00,Wunderground v.1.15,2013-09-02 23:38:00,
2013-09-02 18:40:00,70.7,55.7,29.93,NE,53,2.0,8.0,59,0.00,,,0.00,Wunderground v.1.15,2013-09-02 23:40:00,
2013-09-02 18:44:00,70.5,55.9,29.93,NE,56,2.0,8.0,60,0.00,,,0.00,Wunderground v.1.15,2013-09-02 23:44:00,
2013-09-02 18:46:00,70.3,55.3,29.93,NE,41,3.0,8.0,59,0.00,,,0.00,Wunderground v.1.15,2013-09-02 23:46:00,
2013-09-02 18:51:00,69.9,54.9,29.93,NE,41,2.0,8.0,59,0.00,,,0.00,Wunderground v.1.15,2013-09-02 23:51:00,
2013-09-02 18:53:00,69.8,55.3,29.93,NE,46,2.0,8.0,60,0.00,,,0.00,Wunderground v.1.15,2013-09-02 23:53:00,
2013-09-02 18:55:00,69.6,55.6,29.93,NNE,26,2.0,8.0,61,0.00,,,0.00,Wunderground v.1.15,2013-09-02 23:55:00,
2013-09-02 19:00:00,69.0,55.9,29.93,NE,43,2.0,8.0,63,0.00,,,0.00,Wunderground v.1.15,2013-09-03 00:00:00,
2013-09-02 19:02:00,68.8,55.2,29.93,NE,47,2.0,8.0,62,0.00,,,0.00,Wunderground v.1.15,2013-09-03 00:02:00,
2013-09-02 19:04:00,68.6,55.1,29.93,NE,34,2.0,8.0,62,0.00,,,0.00,Wunderground v.1.15,2013-09-03 00:04:00,
2013-09-02 19:06:00,68.4,54.9,29.93,ENE,67,2.0,8.0,62,0.00,,,0.00,Wunderground v.1.15,2013-09-03 00:06:00,
2013-09-02 19:10:00,68.1,55.0,29.93,NE,36,2.0,8.0,63,0.00,,,0.00,Wunderground v.1.15,2013-09-03 00:10:00,
2013-09-02 19:11:00,67.9,55.3,29.93,NE,44,2.0,8.0,64,0.00,,,0.00,Wunderground v.1.15,2013-09-03 00:11:00,
2013-09-02 19:13:00,67.6,55.0,29.93,NE,48,2.0,8.0,64,0.00,,,0.00,Wunderground v.1.15,2013-09-03 00:13:00,
2013-09-02 19:20:00,66.8,55.1,29.93,NNE,26,2.0,2.0,66,0.00,,,0.00,Wunderground v.1.15,2013-09-03 00:20:00,
2013-09-02 19:24:00,66.5,54.8,29.93,NE,47,1.0,8.0,66,0.00,,,0.00,Wunderground v.1.15,2013-09-03 00:24:00,
2013-09-02 19:26:00,66.4,55.1,29.93,NE,46,1.0,8.0,67,0.00,,,0.00,Wunderground v.1.15,2013-09-03 00:26:00,
2013-09-02 19:28:00,66.2,54.9,29.94,NE,49,1.0,8.0,67,0.00,,,0.00,Wunderground v.1.15,2013-09-03 00:28:00,
2013-09-02 19:31:00,65.8,54.9,29.94,NE,45,1.0,8.0,68,0.00,,,0.00,Wunderground v.1.15,2013-09-03 00:31:00,
2013-09-02 19:33:00,65.6,54.8,29.93,NE,45,1.0,8.0,68,0.00,,,0.00,Wunderground v.1.15,2013-09-03 00:33:00,
2013-09-02 19:37:00,65.3,54.9,29.94,NE,40,1.0,8.0,69,0.00,,,0.00,Wunderground v.1.15,2013-09-03 00:37:00,
2013-09-02 19:42:00,64.9,54.5,29.94,NE,43,1.0,8.0,69,0.00,,,0.00,Wunderground v.1.15,2013-09-03 00:42:00,
2013-09-02 19:44:00,64.7,54.7,29.94,NE,43,1.0,8.0,70,0.00,,,0.00,Wunderground v.1.15,2013-09-03 00:44:00,
2013-09-02 19:48:00,64.2,54.2,29.94,NE,43,1.0,8.0,70,0.00,,,0.00,Wunderground v.1.15,2013-09-03 00:48:00,
2013-09-02 19:50:00,64.0,54.8,29.94,NE,43,1.0,8.0,72,0.00,,,0.00,Wunderground v.1.15,2013-09-03 00:50:00,
2013-09-02 19:52:00,63.8,54.6,29.94,NE,43,1.0,8.0,72,0.00,,,0.00,Wunderground v.1.15,2013-09-03 00:52:00,
2013-09-02 19:55:00,63.3,54.5,29.94,NE,43,1.0,8.0,73,0.00,,,0.00,Wunderground v.1.15,2013-09-03 00:55:00,
2013-09-02 19:59:00,62.9,54.5,29.94,NE,43,1.0,8.0,74,0.00,,,0.00,Wunderground v.1.15,2013-09-03 00:59:00,
2013-09-02 20:02:00,62.7,54.3,29.94,NE,43,1.0,8.0,74,0.00,,,0.00,Wunderground v.1.15,2013-09-03 01:02:00,
2013-09-02 20:04:00,62.6,54.2,29.94,NE,43,1.0,8.0,74,0.00,,,0.00,Wunderground v.1.15,2013-09-03 01:04:00,
2013-09-02 20:08:00,62.4,54.4,29.94,NE,43,1.0,8.0,75,0.00,,,0.00,Wunderground v.1.15,2013-09-03 01:08:00,
2013-09-02 20:12:00,62.2,54.5,29.94,NE,43,1.0,8.0,76,0.00,,,0.00,Wunderground v.1.15,2013-09-03 01:12:00,
2013-09-02 20:14:00,62.1,54.4,29.94,NE,43,1.0,8.0,76,0.00,,,0.00,Wunderground v.1.15,2013-09-03 01:14:00,
2013-09-02 20:15:00,62.1,54.8,29.93,NE,43,1.0,8.0,77,0.00,,,0.00,Wunderground v.1.15,2013-09-03 01:15:00,
2013-09-02 20:17:00,61.9,54.6,29.93,NE,40,1.0,8.0,77,0.00,,,0.00,Wunderground v.1.15,2013-09-03 01:17:00,
2013-09-02 20:19:00,61.8,54.5,29.94,NE,39,1.0,1.0,77,0.00,,,0.00,Wunderground v.1.15,2013-09-03 01:19:00,
2013-09-02 20:21:00,61.7,54.4,29.94,NE,40,1.0,8.0,77,0.00,,,0.00,Wunderground v.1.15,2013-09-03 01:21:00,
2013-09-02 20:24:00,61.6,54.3,29.94,NE,35,1.0,8.0,77,0.00,,,0.00,Wunderground v.1.15,2013-09-03 01:24:00,
2013-09-02 20:26:00,61.6,54.3,29.94,NE,36,1.0,8.0,77,0.00,,,0.00,Wunderground v.1.15,2013-09-03 01:26:00,
2013-09-02 20:28:00,61.6,54.3,29.94,NE,35,1.0,8.0,77,0.00,,,0.00,Wunderground v.1.15,2013-09-03 01:28:00,
2013-09-02 20:32:00,61.5,54.2,29.94,NE,40,1.0,8.0,77,0.00,,,0.00,Wunderground v.1.15,2013-09-03 01:32:00,
2013-09-02 20:35:00,61.4,54.5,29.94,NE,40,0.0,8.0,78,0.00,,,0.00,Wunderground v.1.15,2013-09-03 01:35:00,
2013-09-02 20:39:00,61.2,53.9,29.94,NE,39,1.0,8.0,77,0.00,,,0.00,Wunderground v.1.15,2013-09-03 01:39:00,
2013-09-02 20:41:00,61.3,54.4,29.94,NE,35,1.0,8.0,78,0.00,,,0.00,Wunderground v.1.15,2013-09-03 01:41:00,
2013-09-02 20:46:00,61.3,54.4,29.94,NE,51,1.0,8.0,78,0.00,,,0.00,Wunderground v.1.15,2013-09-03 01:46:00,
2013-09-02 20:48:00,61.3,54.0,29.94,NE,49,1.0,8.0,77,0.00,,,0.00,Wunderground v.1.15,2013-09-03 01:48:00,
2013-09-02 20:52:00,61.2,54.3,29.94,NE,49,1.0,8.0,78,0.00,,,0.00,Wunderground v.1.15,2013-09-03 01:52:00,
2013-09-02 20:54:00,61.2,54.3,29.94,NE,34,1.0,8.0,78,0.00,,,0.00,Wunderground v.1.15,2013-09-03 01:54:00,
2013-09-02 20:57:00,61.1,54.2,29.94,NE,47,1.0,8.0,78,0.00,,,0.00,Wunderground v.1.15,2013-09-03 01:57:00,
2013-09-02 20:59:00,61.0,54.4,29.95,NE,46,1.0,1.0,79,0.00,,,0.00,Wunderground v.1.15,2013-09-03 01:59:00,
2013-09-02 21:03:00,60.8,54.2,29.95,NE,45,1.0,8.0,79,0.00,,,0.00,Wunderground v.1.15,2013-09-03 02:03:00,
2013-09-02 21:06:00,60.6,54.4,29.95,NE,45,1.0,8.0,80,0.00,,,0.00,Wunderground v.1.15,2013-09-03 02:06:00,
2013-09-02 21:08:00,60.5,54.3,29.95,NE,50,1.0,8.0,80,0.00,,,0.00,Wunderground v.1.15,2013-09-03 02:08:00,
2013-09-02 21:10:00,60.3,54.1,29.95,NE,50,0.0,8.0,80,0.00,,,0.00,Wunderground v.1.15,2013-09-03 02:10:00,
2013-09-02 21:14:00,60.1,53.9,29.95,NE,48,0.0,8.0,80,0.00,,,0.00,Wunderground v.1.15,2013-09-03 02:14:00,
2013-09-02 21:18:00,59.8,53.6,29.95,NNE,28,0.0,8.0,80,0.00,,,0.00,Wunderground v.1.15,2013-09-03 02:18:00,
2013-09-02 21:19:00,59.5,53.7,29.95,NNE,28,0.0,8.0,81,0.00,,,0.00,Wunderground v.1.15,2013-09-03 02:19:00,
2013-09-02 21:25:00,58.6,53.1,29.95,NNE,27,0.0,8.0,82,0.00,,,0.00,Wunderground v.1.15,2013-09-03 02:25:00,
2013-09-02 21:28:00,58.4,53.3,29.95,NNE,27,0.0,8.0,83,0.00,,,0.00,Wunderground v.1.15,2013-09-03 02:28:00,
2013-09-02 21:32:00,58.3,53.2,29.95,NNE,27,0.0,8.0,83,0.00,,,0.00,Wunderground v.1.15,2013-09-03 02:32:00,
2013-09-02 21:34:00,58.2,53.1,29.95,NNE,27,0.0,8.0,83,0.00,,,0.00,Wunderground v.1.15,2013-09-03 02:34:00,
2013-09-02 21:39:00,57.6,52.5,29.96,NNE,27,0.0,8.0,83,0.00,,,0.00,Wunderground v.1.15,2013-09-03 02:39:00,
2013-09-02 21:45:00,56.8,52.0,29.95,NNE,27,0.0,8.0,84,0.00,,,0.00,Wunderground v.1.15,2013-09-03 02:45:00,
2013-09-02 21:47:00,56.5,51.7,29.95,NNE,27,0.0,8.0,84,0.00,,,0.00,Wunderground v.1.15,2013-09-03 02:47:00,
2013-09-02 21:54:00,55.7,51.6,29.96,NNE,27,0.0,8.0,86,0.00,,,0.00,Wunderground v.1.15,2013-09-03 02:54:00,
2013-09-02 21:56:00,55.6,51.8,29.96,NNE,27,0.0,8.0,87,0.00,,,0.00,Wunderground v.1.15,2013-09-03 02:56:00,
2013-09-02 21:58:00,55.5,52.0,29.96,NNE,27,0.0,8.0,88,0.00,,,0.00,Wunderground v.1.15,2013-09-03 02:58:00,
2013-09-02 22:00:00,55.5,52.0,29.96,NNE,27,0.0,8.0,88,0.00,,,0.00,Wunderground v.1.15,2013-09-03 03:00:00,
2013-09-02 22:02:00,55.5,52.0,29.96,NNE,27,0.0,8.0,88,0.00,,,0.00,Wunderground v.1.15,2013-09-03 03:02:00,
2013-09-02 22:05:00,55.6,52.7,29.96,NE,49,0.0,8.0,90,0.00,,,0.00,Wunderground v.1.15,2013-09-03 03:05:00,
2013-09-02 22:07:00,55.8,52.9,29.96,NE,43,0.0,8.0,90,0.00,,,0.00,Wunderground v.1.15,2013-09-03 03:07:00,
2013-09-02 22:10:00,56.0,53.1,29.95,NE,43,0.0,8.0,90,0.00,,,0.00,Wunderground v.1.15,2013-09-03 03:10:00,
2013-09-02 22:16:00,56.2,53.3,29.96,NE,43,0.0,8.0,90,0.00,,,0.00,Wunderground v.1.15,2013-09-03 03:16:00,
2013-09-02 22:20:00,56.4,53.5,29.96,NE,39,0.0,8.0,90,0.00,,,0.00,Wunderground v.1.15,2013-09-03 03:20:00,
2013-09-02 22:22:00,56.6,54.0,29.96,NE,41,0.0,8.0,91,0.00,,,0.00,Wunderground v.1.15,2013-09-03 03:22:00,
2013-09-02 22:24:00,56.8,54.2,29.96,NE,37,0.0,8.0,91,0.00,,,0.00,Wunderground v.1.15,2013-09-03 03:24:00,
2013-09-02 22:27:00,57.2,54.6,29.96,NE,41,1.0,8.0,91,0.00,,,0.00,Wunderground v.1.15,2013-09-03 03:27:00,
2013-09-02 22:32:00,57.5,54.6,29.96,NE,40,1.0,8.0,90,0.00,,,0.00,Wunderground v.1.15,2013-09-03 03:32:00,
2013-09-02 22:34:00,57.6,54.7,29.96,ENE,63,1.0,8.0,90,0.00,,,0.00,Wunderground v.1.15,2013-09-03 03:34:00,
2013-09-02 22:38:00,57.9,54.7,29.96,East,79,1.0,8.0,89,0.00,,,0.00,Wunderground v.1.15,2013-09-03 03:38:00,
2013-09-02 22:40:00,58.0,54.8,29.96,NE,50,1.0,1.0,89,0.00,,,0.00,Wunderground v.1.15,2013-09-03 03:40:00,
2013-09-02 22:44:00,58.1,54.9,29.96,ENE,70,1.0,8.0,89,0.00,,,0.00,Wunderground v.1.15,2013-09-03 03:44:00,
2013-09-02 22:46:00,58.2,55.0,29.96,ENE,59,1.0,8.0,89,0.00,,,0.00,Wunderground v.1.15,2013-09-03 03:46:00,
2013-09-02 22:48:00,58.4,55.2,29.96,NE,48,1.0,8.0,89,0.00,,,0.00,Wunderground v.1.15,2013-09-03 03:48:00,
2013-09-02 22:49:00,58.5,55.3,29.96,ENE,76,1.0,8.0,89,0.00,,,0.00,Wunderground v.1.15,2013-09-03 03:49:00,
2013-09-02 22:51:00,58.6,55.4,29.96,NE,47,1.0,8.0,89,0.00,,,0.00,Wunderground v.1.15,2013-09-03 03:51:00,
2013-09-02 22:56:00,58.6,55.1,29.96,NE,46,1.0,8.0,88,0.00,,,0.00,Wunderground v.1.15,2013-09-03 03:56:00,
2013-09-02 23:00:00,58.5,55.0,29.96,NNE,22,1.0,8.0,88,0.00,,,0.00,Wunderground v.1.15,2013-09-03 04:00:00,
2013-09-02 23:02:00,58.6,55.1,29.96,NE,38,1.0,8.0,88,0.00,,,0.00,Wunderground v.1.15,2013-09-03 04:02:00,
2013-09-02 23:06:00,58.7,55.2,29.96,NE,46,2.0,8.0,88,0.00,,,0.00,Wunderground v.1.15,2013-09-03 04:06:00,
2013-09-02 23:08:00,58.7,55.2,29.96,NE,55,2.0,8.0,88,0.00,,,0.00,Wunderground v.1.15,2013-09-03 04:08:00,
2013-09-02 23:09:00,58.7,55.2,29.96,NNE,22,2.0,2.0,88,0.00,,,0.00,Wunderground v.1.15,2013-09-03 04:09:00,
2013-09-02 23:14:00,58.7,55.5,29.96,NE,51,1.0,8.0,89,0.00,,,0.00,Wunderground v.1.15,2013-09-03 04:14:00,
2013-09-02 23:16:00,58.8,55.3,29.97,NNW,345,2.0,8.0,88,0.00,,,0.00,Wunderground v.1.15,2013-09-03 04:16:00,
2013-09-02 23:20:00,59.0,55.4,29.97,NE,45,2.0,8.0,88,0.00,,,0.00,Wunderground v.1.15,2013-09-03 04:20:00,
2013-09-02 23:22:00,59.0,55.1,29.97,NE,53,2.0,8.0,87,0.00,,,0.00,Wunderground v.1.15,2013-09-03 04:22:00,
2013-09-02 23:24:00,59.1,55.2,29.97,NE,47,3.0,8.0,87,0.00,,,0.00,Wunderground v.1.15,2013-09-03 04:24:00,
2013-09-02 23:26:00,59.1,55.2,29.97,ENE,57,2.0,8.0,87,0.00,,,0.00,Wunderground v.1.15,2013-09-03 04:26:00,
2013-09-02 23:31:00,59.0,55.8,29.96,NE,56,2.0,8.0,89,0.00,,,0.00,Wunderground v.1.15,2013-09-03 04:31:00,
2013-09-02 23:33:00,59.0,55.8,29.96,NNE,30,2.0,8.0,89,0.00,,,0.00,Wunderground v.1.15,2013-09-03 04:33:00,
2013-09-02 23:36:00,59.0,55.8,29.96,NE,50,2.0,8.0,89,0.00,,,0.00,Wunderground v.1.15,2013-09-03 04:36:00,
2013-09-02 23:40:00,59.0,55.8,29.96,NE,37,2.0,2.0,89,0.00,,,0.00,Wunderground v.1.15,2013-09-03 04:40:00,
2013-09-02 23:42:00,58.9,55.7,29.96,NE,56,1.0,5.0,89,0.00,,,0.00,Wunderground v.1.15,2013-09-03 04:42:00,
2013-09-02 23:44:00,58.8,55.6,29.96,NE,50,2.0,8.0,89,0.00,,,0.00,Wunderground v.1.15,2013-09-03 04:44:00,
2013-09-02 23:46:00,58.8,55.6,29.96,NE,51,2.0,8.0,89,0.00,,,0.00,Wunderground v.1.15,2013-09-03 04:46:00,
2013-09-02 23:50:00,58.6,55.4,29.96,NE,36,3.0,8.0,89,0.00,,,0.00,Wunderground v.1.15,2013-09-03 04:50:00,
2013-09-02 23:52:00,58.5,55.3,29.96,ENE,75,3.0,8.0,89,0.00,,,0.00,Wunderground v.1.15,2013-09-03 04:52:00,
2013-09-02 23:55:00,58.4,55.2,29.96,NE,53,3.0,8.0,89,0.00,,,0.00,Wunderground v.1.15,2013-09-03 04:55:00,
2013-09-02 23:58:00,58.4,55.5,29.96,East,91,3.0,8.0,90,0.00,,,0.00,Wunderground v.1.15,2013-09-03 04:58:00,